Flag for Portugal Weather past 2 weeks in Coimbra, Portugal

Now
66 °F

Broken clouds.


Feels Like: 66 °F
Forecast: 52 / 75 °F
Wind: 6 mph from West

Location: Porto / Pedras Rubras

Current Time: Sep 2, 2015 at 4:04:23 PM

Latest Report: Sep 2, 2015 at 3:30 PM


Visibility: N/A

Pressure: 29.98 "Hg

Humidity: 83%

Dew point: 61 °F

Location of CoimbraLocation

Historic Weather in Coimbra — Graph

°F

Coimbra temperature yesterday

Maximum temperature yesterday: 73 °F (at 11:00 AM)
Minimum temperature yesterday: 61 °F (at 1:30 AM)
Average temperature yesterday: 66 °F

Past Weeks' High & Low Weather Summary

 TemperatureHumidityPressure
High81 °F (Aug 19, 3:00 PM)100% (Aug 19, 5:00 AM)30.15 "Hg (Aug 19, 5:00 AM)
Low55 °F (Aug 19, 4:30 AM)42% (Aug 19, 4:00 PM)29.83 "Hg (Aug 23, 3:30 PM)
Average66 °F87%30.01 "Hg
* Reported Aug 18 3:00 PM — Sep 2 3:00 PM, Coimbra, Weather by CustomWeather, © 2015

Note: Actual official high and low records may vary slightly from our data, if they occured in-between our weather recording intervals... More about our weather records

Advertising

Coimbra weather history for previous 24 hours

 ConditionsComfort  
Time TempWeatherWind HumidityBarometerVisibility
3:00 PM
Wed, Sep 2
66 °FBroken clouds.7 mph83%29.98 "HgN/A
2:30 PM66 °FBroken clouds.8 mph83%29.98 "HgN/A
2:00 PM66 °FPartly sunny.7 mph83%29.98 "HgN/A
1:30 PM66 °FPartly sunny.5 mph83%29.98 "HgN/A
1:00 PM66 °FPartly sunny.6 mph83%30.01 "HgN/A
12:30 PM68 °FPartly sunny.3 mph78%30.01 "HgN/A
12:00 PM66 °FMore clouds than sun.5 mph83%30.01 "HgN/A
11:30 AM66 °FBroken clouds.5 mph83%30.01 "HgN/A
11:00 AM66 °FBroken clouds.3 mph83%30.01 "HgN/A
10:30 AM66 °FOvercast.3 mph83%30.01 "HgN/A
10:00 AM64 °FOvercast.2 mph88%30.01 "HgN/A
9:30 AM64 °FOvercast.3 mph88%29.98 "HgN/A
9:00 AM64 °FOvercast.5 mph88%29.98 "HgN/A
8:30 AM64 °FOvercast.6 mph88%29.98 "HgN/A
8:00 AM64 °FPassing clouds.5 mph88%29.98 "Hg5 mi
7:30 AM64 °FPartly cloudy.5 mph88%29.98 "Hg5 mi
7:00 AM64 °FPassing clouds.7 mph88%29.98 "HgN/A
6:30 AM64 °FPassing clouds.7 mph88%29.98 "HgN/A
6:00 AM64 °FPassing clouds.8 mph88%29.98 "HgN/A
5:00 AM64 °FLow clouds.9 mph88%29.98 "HgN/A
4:30 AM64 °FLow clouds.9 mph88%29.98 "HgN/A
4:00 AM64 °FLow clouds.9 mph88%29.98 "HgN/A
3:30 AM64 °FLow clouds.10 mph88%29.98 "HgN/A
3:00 AM63 °FPassing clouds.10 mph100%29.98 "HgN/A
2:30 AM63 °FPassing clouds.10 mph94%29.98 "HgN/A
2:00 AM63 °FPassing clouds.9 mph100%30.01 "HgN/A
1:30 AM63 °FClear.10 mph94%30.01 "Hg10 mi
1:00 AM63 °FClear.9 mph94%30.01 "Hg10 mi
12:30 AM63 °FClear.9 mph94%30.01 "Hg10 mi
12:00 AM63 °FClear.6 mph94%30.01 "Hg10 mi
11:30 PM
Tue, Sep 1
63 °FClear.6 mph94%30.01 "Hg10 mi
10:30 PM63 °FClear.5 mph94%30.01 "Hg10 mi
10:00 PM63 °FClear.3 mph94%30.01 "Hg10 mi
9:30 PM63 °FClear.1 mph94%30.01 "Hg10 mi
9:00 PM64 °FPassing clouds.3 mph88%30.01 "HgN/A
8:30 PM64 °FClear.6 mph88%30.01 "Hg5 mi
8:00 PM66 °FSunny.6 mph83%30.01 "Hg10 mi
7:30 PM66 °FSunny.8 mph88%30.01 "Hg10 mi
7:00 PM68 °FPassing clouds.8 mph83%30.01 "HgN/A
6:30 PM70 °FPassing clouds.8 mph73%30.01 "HgN/A
6:00 PM70 °FSunny.10 mph78%30.01 "Hg10 mi
5:30 PM72 °FPassing clouds.9 mph73%30.01 "HgN/A
5:00 PM72 °FPassing clouds.9 mph73%30.04 "HgN/A
4:30 PM72 °FPassing clouds.12 mph69%30.01 "HgN/A
4:00 PM72 °FPassing clouds.13 mph69%30.04 "HgN/A
Weather by CustomWeather, © 2015

See weather overviewHow to use our weather pages